Wetbulb
58.95 58.88 58.92 58.89 59.13 59.48 59.59 59.83 60.13 60.15 60.29 60.74 61.11 61.42 61.94 62.00 61.08 59.26 50.13 60.92 64.47 78.07 77.96 75.56 73.69 70.91 72.59 69.51 71.52 70.51 54.60 52.51 55.21 57.47 60.15 63.41 61.48 65.76 67.65 64.36 65.95 66.23 61.60 63.41 65.84
58.43 58.49 58.47 58.48 58.60 58.86 59.04 59.37 59.50 59.66 59.87 60.42 60.78 61.45 61.90 62.18 56.23 53.24 64.33 73.86 77.25 78.20 72.73 69.18 65.33 67.92 65.14 64.13 66.49 59.07 54.27 56.04 60.54 60.35 61.56 63.14 62.46 64.57 63.86 63.76 63.21 61.21 63.52 65.42 66.13
58.02 57.87 57.84 58.04 58.20 58.43 58.62 59.00 59.16 59.05 59.28 59.93 60.59 61.52 61.88 60.88 50.80 50.31 76.20 76.17 77.82 77.08 65.33 63.56 58.54 64.12 56.67 59.38 59.63 59.50 56.22 60.43 62.48 62.53 65.18 63.39 63.83 66.04 62.80 61.16 63.23 59.73 61.32 64.02 65.38
57.18 57.20 57.25 57.46 57.71 58.09 58.18 58.48 58.46 58.58 58.90 59.47 60.49 61.66 62.30 54.95 44.80 56.02 76.81 77.71 77.82 72.83 58.99 57.93 56.67 54.24 54.15 55.74 60.39 58.49 61.74 62.97 64.16 64.07 64.15 63.09 65.19 63.26 64.12 63.82 66.27 62.44 63.35 63.98 64.80
56.76 56.77 56.93 57.23 57.42 57.71 57.87 57.97 58.02 58.11 58.55 59.41 60.41 61.77 56.10 45.73 48.06 68.23 75.95 76.68 72.31 62.08 57.20 57.09 55.91 54.54 53.79 58.04 59.76 59.68 60.96 62.37 64.80 64.16 63.87 65.49 63.59 63.52 63.62 65.68 64.93 63.37 63.83 64.02 64.95
56.53 56.72 56.75 56.89 57.26 57.51 57.72 57.99 57.81 57.87 58.45 59.55 60.77 62.04 49.92 42.04 51.75 68.29 67.09 65.46 62.32 59.33 58.42 57.85 57.12 57.08 56.65 58.01 57.88 61.64 62.18 61.21 62.43 62.46 64.44 63.23 63.49 64.28 64.35 65.87 64.35 63.06 62.56 63.77 65.14
56.35 56.49 56.75 56.77 57.03 57.27 57.41 57.19 57.10 57.56 58.53 59.78 61.05 61.10 48.55 46.88 57.12 54.92 55.08 59.63 60.91 59.44 56.96 59.36 59.17 55.45 56.65 58.54 62.58 60.38 58.49 59.86 61.66 61.98 62.24 64.05 59.99 61.29 65.02 65.87 64.36 63.97 63.92 64.55 65.55
56.01 56.09 56.23 56.37 56.55 56.79 56.81 56.69 56.68 58.33 59.87 60.70 61.60 54.32 45.75 51.57 53.44 56.95 54.16 53.62 56.50 58.15 58.04 58.61 58.74 55.62 59.24 60.98 59.57 57.77 56.73 51.87 59.02 62.10 61.78 59.58 53.50 62.44 65.42 64.74 63.86 64.76 64.96 65.46 66.05
55.86 55.90 55.96 55.93 56.17 56.18 55.73 55.90 57.54 59.52 61.16 62.18 52.88 50.32 46.64 58.00 51.70 52.91 52.89 51.65 50.42 50.83 52.56 59.39 56.75 53.13 56.99 53.13 50.89 52.75 49.38 51.48 55.09 61.25 60.48 57.61 54.43 62.50 65.12 64.38 63.40 64.48 64.95 65.74 66.21
56.05 56.10 55.92 56.08 55.92 55.37 54.85 55.94 57.12 58.62 60.54 60.95 58.09 44.15 50.50 46.97 51.32 55.76 51.88 50.88 49.13 49.67 52.30 53.55 51.23 49.76 49.01 48.53 44.44 47.83 49.15 51.68 53.50 58.25 60.04 56.72 57.05 61.79 63.94 63.82 62.99 63.73 64.62 65.02 65.70
55.96 55.78 55.74 55.51 55.11 54.36 52.41 50.85 49.62 47.64 50.49 48.48 45.98 44.59 48.91 53.46 54.40 53.66 54.09 48.75 48.02 48.49 45.14 48.85 48.33 46.82 50.57 50.76 50.62 50.51 48.91 51.07 55.26 60.44 59.15 55.99 57.13 59.91 62.75 63.20 62.80 62.90 63.33 63.84 64.98
55.72 55.43 55.03 55.03 54.48 54.04 50.11 51.08 50.94 51.06 45.89 51.20 50.90 50.59 51.99 53.08 51.11 51.81 50.65 46.26 44.91 43.30 46.36 46.41 45.85 50.06 51.06 51.44 50.68 49.43 49.92 50.36 54.93 59.76 57.13 56.56 55.61 59.09 61.38 61.93 63.00 63.42 63.36 64.14 64.75
54.93 54.44 53.95 54.03 53.51 49.83 47.74 51.82 52.77 49.51 43.05 47.62 49.35 48.90 50.11 53.07 50.22 50.00 48.64 45.03 43.05 41.87 44.47 44.23 47.32 51.14 51.15 49.28 49.06 46.74 47.39 49.98 51.19 57.47 57.26 55.59 52.23 55.28 58.59 59.59 61.76 63.69 64.28 64.46 64.30
54.19 54.09 53.31 52.44 49.62 47.16 50.01 51.79 50.60 50.47 38.23 42.90 44.96 48.32 49.01 50.14 47.89 54.02 49.20 46.46 43.63 43.13 44.46 43.17 46.79 49.31 47.44 47.40 48.25 43.34 52.00 52.92 53.89 51.09 46.82 53.24 45.02 50.39 54.84 56.78 58.34 60.42 62.07 63.98 64.14
54.05 53.64 52.54 51.79 45.44 49.00 51.64 49.75 49.94 48.67 33.18 47.05 45.57 50.74 47.34 46.39 45.23 47.18 49.20 47.33 43.44 43.15 42.60 41.70 45.11 45.93 46.03 48.65 49.94 47.32 51.72 50.83 52.63 49.87 48.99 50.32 46.56 49.51 51.72 52.39 56.64 58.37 60.71 62.85 64.68
53.68 53.44 52.29 48.92 45.60 49.23 49.72 49.24 49.30 37.64 35.12 44.93 46.37 45.57 44.76 43.68 45.89 47.06 46.64 47.58 47.00 43.84 41.83 43.13 45.16 45.09 46.12 49.06 50.09 50.26 47.60 45.99 46.44 46.00 42.50 47.54 47.70 47.22 49.09 53.04 55.14 59.31 60.54 62.20 64.30
52.78 51.63 49.95 50.32 47.96 49.35 48.97 48.30 36.98 34.42 45.06 45.39 44.20 45.16 40.65 40.03 43.21 44.79 43.57 42.96 41.63 39.35 37.05 41.23 42.18 42.75 46.72 42.12 44.41 44.60 41.05 36.26 36.42 40.47 41.10 43.25 46.31 48.30 53.34 54.72 57.00 57.32 59.18 61.57 64.43
51.16 50.10 50.15 50.24 48.41 49.03 48.53 41.75 34.28 42.67 43.10 46.57 45.78 43.34 41.93 43.73 41.96 43.42 41.05 40.09 39.39 39.52 35.99 35.72 37.22 41.98 44.47 43.30 42.26 41.61 41.80 36.84 33.13 34.84 38.61 43.79 42.32 48.59 54.28 56.00 56.60 59.73 60.59 62.59 63.09
50.47 47.60 47.60 50.55 50.72 48.45 43.76 34.81 36.10 41.09 45.67 45.15 43.81 41.42 40.98 43.64 42.87 42.40 39.31 38.75 40.03 39.91 38.90 33.99 36.76 42.61 44.47 44.93 45.21 40.78 40.42 42.09 37.96 34.20 37.09 42.37 46.43 50.83 53.23 55.22 57.49 58.35 60.38 61.24 62.22
48.27 50.27 51.30 51.27 50.21 47.71 40.40 37.16 39.90 45.59 46.34 46.05 39.69 41.67 39.17 41.69 42.79 40.32 40.79 42.74 45.62 43.23 38.93 38.17 35.95 41.15 42.30 43.54 43.22 40.93 43.57 37.91 36.09 34.19 32.82 36.85 40.45 43.61 48.49 51.94 56.05 57.60 58.35 60.14 61.20
50.46 49.56 52.91 51.06 50.47 47.26 41.13 40.18 45.06 49.34 48.52 46.03 42.54 40.74 39.71 40.85 39.73 39.27 42.82 45.54 49.14 49.44 40.88 37.11 37.78 39.08 40.03 39.08 39.94 39.59 38.98 37.23 37.51 36.01 34.36 33.29 37.80 47.17 50.48 50.74 53.78 57.10 59.23 59.89 60.74
49.31 46.91 53.91 51.46 46.26 40.24 41.71 43.94 47.96 49.47 49.47 47.32 45.27 43.43 41.82 43.78 40.99 41.44 45.52 45.42 51.93 49.50 45.83 42.36 35.56 35.27 39.19 39.91 41.07 40.68 40.69 38.41 35.17 33.92 33.35 34.51 38.02 46.87 51.35 51.63 54.71 56.60 58.58 60.12 61.53
48.76 47.91 53.38 51.11 41.55 41.33 43.57 46.49 47.74 48.67 49.15 47.40 48.82 47.26 45.34 44.26 40.81 44.86 48.74 53.50 52.69 50.51 47.07 46.11 37.42 33.03 37.62 38.58 38.91 39.04 39.29 36.86 36.07 34.76 33.45 34.77 38.06 46.13 51.78 54.73 55.21 55.90 57.49 59.21 61.05
47.24 45.49 46.04 45.63 42.47 41.66 41.18 43.00 45.22 49.47 50.67 50.73 49.59 48.96 46.72 44.97 45.22 44.29 47.14 52.02 52.97 51.30 60.04 49.24 34.83 35.68 33.49 37.31 37.56 37.85 40.71 39.00 38.01 34.92 35.06 36.49 40.83 45.71 46.10 53.10 55.32 56.11 56.91 57.94 61.89
41.23 39.64 40.12 40.83 41.35 41.08 40.16 42.20 43.24 43.51 47.94 48.10 47.91 47.58 46.50 42.70 44.31 43.79 47.59 48.45 51.36 54.12 49.41 45.62 40.31 37.52 40.46 42.53 40.69 40.87 40.91 40.40 39.34 38.50 39.36 40.17 40.41 44.59 46.86 47.76 53.47 56.73 59.51 61.09 61.38
39.46 37.93 39.53 37.42 40.08 38.95 38.62 37.74 41.85 43.95 44.83 43.02 44.19 47.45 48.40 44.06 42.70 42.44 45.33 44.34 46.07 48.78 46.30 44.51 41.80 41.16 43.33 44.25 43.40 40.53 41.73 41.41 41.06 40.86 40.75 40.83 42.02 45.87 51.57 54.47 55.43 57.46 61.05 61.24 61.68
44.18 43.24 41.43 37.90 38.08 37.44 37.63 40.38 43.31 44.57 45.39 47.01 46.72 45.99 45.59 45.61 45.34 46.03 47.03 48.77 48.47 45.67 44.96 43.19 41.60 40.49 39.27 43.19 41.84 37.55 42.28 41.63 50.13 51.58 47.17 43.63 47.41 52.95 55.34 57.04 55.30 56.52 62.26 62.15 62.66
MSLP
1014.56 1014.16 1013.69 1013.17 1012.70 1012.34 1011.89 1011.46 1010.85 1010.20 1009.60 1009.01 1008.38 1007.95 1007.40 1006.57 1005.59 1005.51 1004.44 1002.81 1003.01 1003.63 1004.16 1004.96 1005.48 1005.64 1005.88 1005.78 1005.32 1005.08 1005.76 1006.30 1006.43 1006.61 1006.85 1007.10 1007.36 1007.65 1007.99 1008.64 1009.17 1009.87 1010.61 1011.31 1012.37
1014.63 1014.23 1013.75 1013.18 1012.71 1012.22 1011.78 1011.40 1010.81 1010.16 1009.54 1008.88 1008.31 1007.88 1007.31 1006.77 1005.99 1004.54 1002.34 1002.31 1002.71 1003.19 1003.86 1004.27 1004.82 1005.46 1005.72 1005.42 1004.93 1005.11 1005.41 1005.22 1004.96 1005.35 1005.94 1006.44 1006.96 1007.48 1008.04 1008.63 1009.62 1010.23 1010.75 1011.48 1012.46
1014.70 1014.27 1013.77 1013.28 1012.70 1012.18 1011.65 1011.26 1010.76 1010.21 1009.51 1008.81 1008.21 1007.84 1007.25 1006.76 1005.73 1003.44 1002.37 1002.34 1002.56 1002.81 1003.19 1003.39 1003.92 1004.55 1004.92 1004.66 1004.27 1004.27 1004.48 1004.30 1004.49 1004.75 1005.44 1006.37 1007.19 1007.59 1008.08 1008.58 1008.85 1009.93 1010.82 1011.67 1012.37
1014.60 1014.13 1013.70 1013.30 1012.72 1012.08 1011.51 1011.03 1010.57 1010.06 1009.46 1008.79 1008.14 1007.64 1007.05 1006.68 1005.17 1003.05 1002.46 1002.46 1002.76 1003.30 1003.26 1003.00 1003.46 1003.88 1004.00 1003.99 1003.60 1003.92 1003.97 1004.03 1004.27 1004.73 1005.59 1006.40 1006.98 1007.64 1008.26 1008.24 1008.07 1009.31 1010.29 1011.38 1012.18
1014.46 1014.01 1013.57 1013.09 1012.59 1011.94 1011.31 1010.75 1010.23 1009.87 1009.31 1008.77 1008.17 1007.59 1006.83 1006.29 1004.14 1002.97 1002.83 1002.96 1003.30 1003.65 1003.26 1002.76 1002.92 1003.14 1003.29 1003.44 1003.43 1003.83 1004.05 1004.06 1004.26 1004.78 1005.49 1006.25 1007.11 1007.58 1008.35 1008.59 1008.83 1009.71 1010.62 1011.13 1011.76
1014.49 1013.93 1013.37 1012.84 1012.23 1011.63 1011.10 1010.52 1009.89 1009.44 1009.05 1008.61 1008.16 1007.84 1007.31 1005.70 1002.99 1002.98 1003.14 1003.29 1003.16 1003.14 1002.77 1002.48 1002.34 1002.47 1003.03 1003.33 1003.78 1004.14 1004.38 1004.59 1004.97 1005.38 1005.87 1006.42 1007.22 1007.47 1008.58 1008.84 1009.24 1009.79 1010.49 1010.99 1011.18
1014.36 1013.78 1013.15 1012.51 1011.81 1011.19 1010.67 1010.21 1009.58 1008.99 1008.60 1008.24 1008.05 1007.84 1006.99 1004.08 1002.85 1003.08 1003.12 1002.66 1002.32 1002.47 1002.41 1002.00 1002.01 1002.50 1002.98 1003.62 1003.99 1004.31 1004.88 1005.15 1005.48 1005.78 1006.44 1006.53 1007.45 1007.71 1008.10 1008.67 1009.25 1009.73 1010.16 1010.59 1010.75
1014.22 1013.62 1013.05 1012.37 1011.63 1010.91 1010.17 1009.56 1009.12 1008.41 1007.89 1007.70 1007.85 1007.67 1005.92 1002.78 1002.80 1002.86 1002.59 1002.27 1002.05 1002.16 1002.26 1001.86 1001.89 1002.55 1003.12 1003.68 1004.35 1005.00 1005.51 1005.90 1005.70 1005.93 1006.28 1006.83 1007.39 1007.49 1008.03 1008.78 1009.48 1009.79 1010.14 1010.28 1010.35
1014.00 1013.42 1012.78 1012.14 1011.36 1010.49 1009.60 1008.90 1008.32 1007.94 1007.74 1007.64 1007.80 1007.25 1004.73 1002.40 1002.47 1002.30 1002.19 1001.99 1001.86 1002.03 1002.02 1002.02 1002.23 1003.27 1003.88 1004.58 1005.51 1005.96 1006.00 1005.98 1005.60 1005.75 1006.17 1006.97 1007.22 1007.12 1007.84 1008.50 1009.05 1009.41 1009.49 1009.84 1009.93
1013.73 1013.06 1012.37 1011.68 1011.01 1010.24 1009.17 1008.13 1007.83 1007.82 1007.94 1007.86 1007.35 1007.09 1004.17 1003.50 1003.04 1002.31 1001.91 1001.89 1001.87 1002.08 1002.36 1002.73 1003.43 1003.96 1004.90 1005.35 1006.11 1006.14 1006.10 1005.83 1005.90 1005.82 1006.43 1006.33 1006.48 1006.97 1007.47 1008.05 1008.25 1008.74 1009.22 1009.43 1009.62
1013.57 1012.87 1012.16 1011.45 1010.70 1010.09 1008.99 1008.04 1008.44 1008.35 1007.76 1007.16 1006.71 1005.93 1004.63 1003.84 1003.14 1002.50 1002.02 1002.00 1002.09 1002.67 1003.30 1003.73 1004.42 1004.66 1004.61 1005.07 1005.39 1005.71 1005.85 1005.85 1005.47 1005.58 1005.96 1006.57 1006.66 1007.02 1007.10 1007.97 1008.32 1008.41 1008.65 1008.92 1008.86
1013.39 1012.72 1011.97 1011.25 1010.61 1009.96 1009.79 1009.46 1009.58 1009.48 1008.36 1006.38 1005.76 1005.50 1004.71 1004.32 1004.14 1002.70 1002.27 1002.38 1002.72 1003.42 1003.83 1004.60 1004.73 1004.26 1004.49 1004.82 1005.20 1005.40 1005.63 1005.52 1005.19 1005.27 1005.86 1006.28 1006.65 1006.65 1007.17 1006.78 1006.99 1007.65 1007.96 1007.90 1008.14
1013.14 1012.42 1011.79 1011.01 1010.34 1009.90 1009.88 1009.24 1009.04 1009.05 1008.83 1006.23 1005.37 1004.98 1004.25 1004.17 1003.90 1002.74 1002.36 1002.39 1002.89 1003.82 1004.07 1004.60 1004.41 1004.12 1004.35 1004.64 1004.91 1004.96 1005.26 1005.42 1005.30 1005.60 1006.31 1006.56 1006.66 1006.61 1006.37 1006.62 1006.93 1006.90 1007.03 1007.25 1007.20
1012.94 1012.28 1011.62 1010.79 1010.39 1010.37 1009.54 1008.91 1008.65 1008.59 1008.55 1006.18 1004.83 1003.92 1004.00 1003.89 1003.30 1002.32 1002.12 1002.46 1003.15 1003.72 1004.50 1004.54 1004.24 1004.27 1004.26 1004.26 1004.38 1004.39 1004.58 1004.86 1005.30 1006.13 1006.67 1006.69 1007.08 1006.78 1006.09 1006.04 1006.26 1005.98 1006.13 1006.21 1006.54
1012.68 1012.16 1011.69 1011.42 1011.12 1010.29 1009.25 1008.44 1008.16 1008.26 1007.72 1005.31 1004.21 1003.35 1003.74 1003.85 1003.40 1002.49 1002.28 1002.34 1003.29 1004.00 1004.64 1004.48 1004.15 1004.01 1003.94 1003.85 1004.03 1004.00 1004.03 1004.83 1005.31 1006.48 1007.22 1007.55 1007.80 1005.65 1005.98 1005.61 1005.10 1004.70 1004.93 1005.27 1005.59
1012.26 1011.83 1011.56 1011.48 1011.23 1009.46 1008.75 1008.29 1008.01 1008.53 1007.11 1005.26 1004.11 1003.96 1003.98 1003.68 1003.20 1002.68 1002.52 1002.65 1003.38 1004.27 1004.82 1004.61 1004.09 1003.81 1003.55 1003.49 1003.43 1003.65 1004.25 1005.39 1006.52 1007.62 1008.40 1007.24 1007.77 1005.79 1004.98 1003.67 1003.38 1003.45 1003.71 1004.35 1004.94
1011.75 1011.21 1011.33 1010.93 1010.32 1009.19 1008.73 1008.51 1009.23 1008.35 1007.20 1006.13 1005.30 1004.81 1004.48 1004.21 1003.85 1003.45 1003.53 1003.74 1004.24 1005.14 1005.65 1005.15 1004.34 1003.63 1003.24 1003.62 1003.62 1004.10 1005.38 1006.69 1008.16 1009.15 1008.82 1007.69 1007.90 1005.28 1003.15 1002.51 1002.53 1002.96 1003.05 1003.34 1003.81
1011.22 1010.81 1010.78 1010.27 1009.75 1009.53 1009.07 1009.38 1009.49 1008.86 1007.83 1006.56 1006.02 1005.46 1005.42 1005.03 1004.81 1004.71 1004.57 1004.94 1005.09 1005.46 1006.39 1005.95 1004.71 1003.51 1002.98 1002.99 1003.40 1004.22 1005.30 1006.89 1008.24 1009.45 1008.96 1008.20 1006.91 1004.25 1002.57 1001.91 1002.02 1002.19 1002.17 1002.80 1003.36
1010.74 1010.71 1010.73 1009.80 1009.66 1009.84 1009.89 1010.60 1010.21 1009.13 1007.96 1007.16 1006.34 1006.24 1006.13 1005.59 1005.48 1005.47 1005.71 1005.67 1005.60 1005.52 1006.14 1006.15 1004.89 1003.45 1002.85 1002.54 1003.00 1004.62 1005.51 1006.07 1007.86 1009.34 1009.17 1007.76 1006.07 1003.75 1002.38 1001.82 1001.86 1002.16 1002.31 1002.61 1003.06
1011.31 1010.81 1010.45 1009.69 1009.63 1009.62 1010.13 1010.83 1010.14 1008.91 1007.84 1007.35 1007.07 1006.77 1006.93 1006.55 1006.34 1006.20 1006.33 1006.09 1006.05 1005.79 1005.70 1005.80 1005.53 1003.79 1003.18 1002.94 1003.31 1003.84 1004.84 1006.52 1008.11 1009.15 1009.21 1007.75 1006.27 1004.08 1002.51 1001.63 1001.71 1002.12 1002.27 1002.78 1003.06
1011.36 1011.23 1010.42 1009.82 1009.83 1010.39 1011.45 1011.14 1009.78 1008.13 1007.86 1007.52 1007.01 1006.95 1007.12 1007.15 1006.96 1007.10 1007.10 1006.55 1006.24 1005.84 1005.80 1006.08 1006.07 1004.67 1003.92 1003.61 1003.87 1004.59 1005.21 1006.73 1007.96 1008.61 1008.74 1007.74 1005.81 1002.67 1001.97 1001.11 1001.13 1001.25 1001.51 1002.09 1002.88
1011.78 1012.12 1010.62 1010.05 1010.83 1012.27 1012.08 1011.16 1009.83 1008.39 1007.66 1007.37 1007.24 1007.23 1007.40 1007.54 1007.50 1007.51 1007.44 1006.93 1006.48 1006.22 1006.37 1006.34 1006.62 1006.03 1004.41 1003.48 1003.34 1003.54 1004.48 1005.88 1007.80 1008.81 1008.69 1007.46 1004.19 1001.41 1001.13 1001.18 1001.22 1000.90 1001.10 1001.60 1002.35
1012.99 1012.63 1010.91 1010.70 1012.22 1012.90 1012.19 1011.18 1010.12 1009.03 1008.46 1008.02 1008.05 1007.87 1007.82 1008.22 1008.24 1007.95 1007.65 1006.79 1006.67 1006.35 1006.49 1006.37 1007.20 1006.75 1005.09 1004.62 1003.83 1003.83 1004.22 1004.99 1006.21 1007.25 1007.74 1006.90 1003.71 1001.19 1000.97 1000.81 1000.96 1001.09 1000.96 1001.27 1002.18
1013.79 1013.84 1012.84 1012.67 1013.34 1013.37 1013.04 1012.02 1010.62 1009.43 1009.04 1008.67 1008.73 1008.53 1008.59 1008.84 1008.82 1008.64 1008.27 1007.37 1006.81 1006.58 1006.56 1006.66 1007.77 1007.91 1007.48 1006.48 1005.52 1004.54 1003.88 1004.50 1005.10 1006.61 1006.38 1005.36 1003.25 1001.44 1001.04 1001.05 1000.79 1001.09 1001.02 1001.31 1001.80
1014.93 1016.11 1015.86 1014.91 1014.53 1014.18 1013.55 1012.66 1011.67 1010.68 1009.75 1009.44 1009.30 1009.40 1009.39 1009.49 1009.57 1009.36 1008.85 1008.19 1007.22 1007.02 1006.79 1007.09 1007.76 1007.65 1006.91 1006.02 1005.38 1004.23 1003.85 1004.10 1004.27 1004.22 1004.51 1003.81 1003.24 1001.85 1001.93 1001.18 1000.66 1001.06 1001.61 1001.53 1001.70
1016.75 1017.15 1016.52 1015.97 1015.34 1014.63 1014.04 1013.37 1012.46 1011.60 1010.92 1010.46 1010.26 1009.86 1009.70 1009.89 1010.21 1010.16 1009.69 1009.06 1008.39 1007.70 1007.85 1007.81 1007.94 1007.72 1007.04 1005.99 1005.29 1004.30 1003.49 1003.65 1004.21 1003.80 1003.47 1003.01 1002.68 1001.76 1001.62 1001.01 1000.64 1000.31 1000.76 1001.26 1000.86
1017.70 1017.50 1017.20 1016.88 1016.05 1015.25 1014.52 1013.75 1012.95 1012.41 1011.22 1010.83 1010.78 1010.61 1010.27 1010.18 1010.17 1009.64 1009.43 1009.10 1008.75 1008.80 1008.79 1008.56 1008.41 1008.38 1007.62 1006.48 1005.58 1004.69 1003.69 1003.41 1003.82 1003.82 1003.66 1003.22 1002.53 1002.33 1001.57 1001.26 1000.63 1000.26 1000.33 1000.25 1000.87
Wind_Speed
19 19 20 20 20 20 19 19 20 20 20 20 20 19 18 19 16 3 4 6 7 16 12 10 2 4 1 3 4 2 4 0 5 6 6 7 4 2 5 8 3 3 5 7 14
19 19 20 20 21 21 20 19 19 21 21 20 19 18 18 17 4 2 9 8 19 17 7 9 5 8 3 3 2 3 3 5 4 6 7 10 6 5 5 4 4 6 10 17 13
20 20 20 20 21 21 20 20 19 20 20 20 19 18 17 10 4 3 5 13 21 15 6 5 6 8 4 5 4 3 4 4 2 5 12 9 5 2 7 1 7 11 18 17 14
20 21 20 20 20 21 21 20 20 20 20 20 19 18 19 2 3 3 4 10 14 3 1 3 3 4 1 2 2 3 7 1 4 8 7 11 7 5 1 4 8 17 20 17 15
21 21 21 20 20 20 21 21 21 19 19 18 18 16 5 5 8 3 7 7 7 3 5 4 1 2 4 3 3 5 3 4 6 8 8 11 4 5 3 6 13 16 15 16 14
21 21 21 21 21 21 21 20 21 21 18 17 15 13 2 3 0 6 5 3 5 5 4 2 2 2 3 3 4 2 8 5 7 7 4 9 4 3 4 10 13 16 15 14 14
21 21 21 22 23 23 22 21 22 22 19 15 9 3 2 14 8 4 5 5 4 4 2 3 2 3 2 4 3 3 6 6 4 3 4 12 2 4 8 12 14 14 13 14 14
21 22 21 22 23 24 24 23 22 22 14 8 4 1 9 4 2 7 4 5 5 2 2 4 2 3 3 4 6 4 5 2 3 4 3 2 5 5 10 12 11 11 10 12 13
22 22 22 22 23 24 25 25 21 7 2 6 2 1 11 8 2 3 4 4 4 2 3 1 3 4 4 5 4 6 2 3 5 6 5 4 6 8 12 13 11 12 12 12 11
21 22 22 23 23 23 26 21 5 3 1 3 2 3 4 3 6 7 3 3 2 2 4 6 6 4 4 5 3 4 4 1 4 2 4 4 7 10 16 16 16 14 11 11 11
22 22 22 22 23 21 14 3 8 5 4 5 3 4 5 9 3 4 3 4 3 7 4 3 6 5 10 6 5 3 2 5 3 5 5 6 5 11 16 13 12 11 10 11 13
22 22 22 22 21 21 3 7 6 4 9 7 8 7 5 3 6 5 2 5 4 5 4 5 5 10 0 5 3 3 4 4 4 8 5 6 10 6 11 19 18 14 13 14 13
24 24 23 22 24 4 2 6 2 6 0 9 4 4 5 8 7 8 3 2 4 5 5 7 5 6 5 3 3 4 4 3 6 2 2 2 5 4 7 4 7 11 13 14 16
24 22 21 26 2 3 2 2 5 6 6 9 3 3 3 2 5 6 3 4 3 8 8 4 3 8 5 4 6 6 8 6 4 3 5 2 8 5 7 10 12 15 12 14 13
24 20 18 9 3 1 4 7 4 4 5 10 2 1 1 6 4 3 2 4 5 4 6 7 1 3 4 7 7 7 3 2 4 4 2 3 2 10 1 6 17 19 18 14 12
24 18 12 1 1 6 7 7 4 8 4 8 2 4 4 2 4 2 3 5 3 6 3 6 2 2 4 2 4 1 3 6 6 4 1 8 7 10 6 10 5 15 17 17 12
23 17 4 0 1 7 5 5 7 6 5 9 5 6 3 3 3 1 2 3 5 4 4 6 5 3 4 3 2 6 7 4 4 2 8 3 4 12 12 8 8 7 11 15 16
24 2 6 4 4 7 4 7 8 1 4 4 5 4 6 7 5 8 4 2 3 5 3 4 8 8 4 8 8 6 9 8 6 5 6 2 7 12 8 7 6 4 8 8 12
16 1 0 4 2 2 7 7 4 5 4 7 6 7 8 6 3 5 5 1 2 6 8 5 8 5 5 4 9 3 3 5 7 2 2 5 8 11 6 10 5 5 5 8 11
3 3 4 3 1 5 7 2 4 5 3 2 4 1 5 8 6 6 6 3 7 6 1 5 3 5 2 3 3 5 6 3 3 3 4 5 5 8 6 11 7 8 10 8 7
3 5 4 3 2 6 4 4 5 7 5 5 2 2 2 3 2 4 6 4 7 8 4 2 3 8 2 6 9 0 1 6 5 5 6 3 9 10 11 9 9 11 9 9 10
3 4 4 4 6 1 1 2 5 6 5 3 4 3 3 5 3 3 5 4 7 4 4 1 4 5 13 3 3 6 11 7 7 4 2 3 9 5 12 4 6 10 8 6 10
3 1 3 4 4 4 6 5 3 7 7 6 6 5 4 3 2 3 5 7 6 6 4 1 3 5 12 8 3 5 6 6 6 4 7 7 9 2 5 6 7 10 8 8 9
3 3 5 5 1 3 4 5 7 7 2 4 3 3 4 6 4 2 3 4 8 4 4 5 3 6 6 10 5 6 4 5 7 6 6 8 8 13 8 9 6 8 7 8 10
5 0 2 3 3 3 1 3 4 7 5 8 5 5 3 3 7 2 2 5 8 1 6 4 2 2 8 10 5 5 3 5 8 6 8 5 8 9 9 11 7 6 5 8 12
4 3 4 0 3 2 2 2 3 6 2 3 3 7 2 2 3 5 4 2 6 6 5 3 3 2 7 5 7 6 6 5 6 1 7 4 7 6 8 8 5 8 11 11 14
2 1 4 3 4 1 1 2 2 3 4 2 3 3 4 1 5 12 11 9 8 1 3 2 2 2 5 4 9 4 4 2 4 4 4 3 4 8 11 13 8 7 10 15 11
Wind_Direction
352 349 347 345 342 341 340 337 335 333 331 328 326 328 328 328 319 160 247 217 168 155 116 142 127 153 116 245 232 167 58 153 181 183 142 150 131 121 102 134 107 99 138 148 145
350 347 345 342 339 336 336 334 333 330 328 326 325 328 326 333 317 240 256 153 143 156 118 169 164 142 192 235 227 115 99 226 193 152 153 162 137 140 138 128 68 70 99 131 146
346 344 342 339 335 333 331 330 329 326 324 325 324 325 321 328 327 269 40 162 163 174 140 187 115 143 220 168 206 165 170 194 89 109 137 143 136 78 118 229 184 162 144 151 159
343 342 339 336 333 330 328 325 324 323 322 323 322 322 321 305 194 30 89 154 173 152 178 214 176 182 147 133 249 91 26 22 133 116 115 147 127 96 227 286 141 147 151 155 172
342 340 337 334 331 328 325 321 318 319 318 319 319 325 350 12 257 72 105 137 132 188 236 246 108 144 59 65 4 57 19 33 110 104 124 126 89 129 78 102 120 133 154 168 178
339 336 334 331 328 325 321 317 314 314 314 312 313 319 1 294 131 125 118 157 226 203 197 208 348 36 119 70 75 82 54 64 56 75 83 119 138 81 129 136 138 153 174 180 190
337 335 332 330 327 322 318 314 312 309 306 299 296 295 108 237 135 330 248 224 206 184 153 235 160 65 77 79 123 74 69 55 39 34 98 116 119 185 156 159 159 178 184 191 200
336 333 332 328 324 320 315 312 311 306 300 274 235 222 249 237 183 293 194 262 248 256 239 232 187 135 65 112 31 75 58 74 249 142 230 84 242 191 169 162 179 188 205 208 210
332 331 329 327 323 319 315 312 309 307 41 134 140 130 269 309 333 324 199 214 159 138 232 195 62 92 52 85 27 12 204 203 288 172 159 192 229 202 175 179 194 203 201 216 225
331 329 328 326 323 322 319 307 280 330 176 222 272 20 300 311 296 316 259 226 152 79 40 45 45 77 52 78 197 249 269 245 250 180 260 220 252 182 186 190 197 204 207 210 227
330 328 326 325 324 325 339 30 15 350 17 220 222 270 292 293 296 320 331 98 74 55 145 359 87 183 219 174 148 173 233 252 233 182 153 238 264 201 201 202 205 210 212 218 220
328 327 326 324 322 320 294 88 125 205 308 253 249 271 293 75 310 302 323 134 116 181 123 40 201 225 226 146 175 180 230 277 263 168 166 170 250 231 200 212 204 206 219 219 231
330 330 329 324 318 336 336 145 78 128 344 299 219 218 227 142 215 260 142 127 122 130 166 156 231 156 140 163 174 192 179 222 240 75 59 161 279 207 231 210 213 214 214 219 218
332 331 330 326 353 320 268 332 306 180 56 286 333 293 121 187 272 216 221 116 50 191 151 211 237 191 165 202 156 268 193 205 207 109 251 5 280 214 240 227 219 222 210 214 207
331 329 327 338 290 236 314 323 305 67 55 319 340 171 108 154 310 348 279 66 173 168 101 242 171 173 171 205 181 228 226 229 201 162 98 343 60 272 189 252 225 222 213 211 205
329 322 322 162 251 259 311 316 52 42 24 335 359 5 122 283 288 296 121 57 132 116 15 232 284 192 211 169 199 185 73 46 52 91 16 218 157 284 225 221 244 221 216 202 192
327 317 235 324 263 317 310 44 43 82 319 328 331 3 323 11 30 345 70 61 144 70 349 324 261 255 180 156 304 76 61 343 2 19 219 27 113 236 286 244 235 200 218 193 184
330 14 210 229 290 346 42 50 69 321 283 314 344 330 57 2 22 2 28 223 49 83 117 149 315 182 191 173 185 182 155 157 211 199 249 344 221 253 252 288 263 219 206 178 175
324 297 356 291 211 141 67 54 184 204 248 323 327 54 350 5 57 66 28 296 246 180 175 164 275 292 217 152 132 188 168 181 114 22 109 223 287 297 270 283 262 187 180 189 177
17 15 358 332 194 55 73 211 241 212 304 13 41 85 33 339 41 40 20 327 345 210 179 238 272 205 294 81 9 150 169 73 8 175 240 275 277 241 279 277 237 204 213 185 171
38 51 300 338 22 44 93 243 278 257 201 185 228 24 93 0 51 38 350 323 356 322 165 140 126 282 118 178 185 86 331 46 123 136 173 229 262 216 231 241 231 220 204 188 173
75 51 318 1 46 50 37 263 295 299 38 311 35 27 35 29 31 93 11 240 346 309 3 247 154 242 229 285 226 173 190 146 126 242 221 173 271 196 229 238 236 249 205 191 159
71 262 324 71 74 341 321 311 288 341 345 16 19 33 27 43 71 74 351 285 341 10 9 306 347 347 344 357 354 200 186 139 120 89 200 149 263 113 259 257 233 242 224 180 151
70 29 336 47 36 94 3 337 333 337 77 0 34 43 40 23 16 325 317 294 331 320 7 112 124 143 192 235 221 289 200 152 132 129 178 221 259 285 303 271 239 233 213 177 163
22 65 170 328 354 18 351 334 351 352 358 20 23 25 345 339 347 316 260 314 311 322 15 82 189 208 241 257 242 249 248 178 179 195 158 226 202 269 301 283 273 184 239 170 173
76 39 359 101 303 302 354 53 353 325 283 353 29 319 274 167 133 285 350 236 249 319 12 350 261 59 307 329 3 288 300 253 278 214 285 204 256 206 283 286 256 202 171 210 190
336 6 103 318 345 61 243 329 286 349 287 110 313 310 298 311 274 253 227 245 239 249 278 256 164 47 268 350 320 337 304 233 97 11 315 216 272 334 325 315 276 241 202 196 186